Tracking 20083 objects as of 9-Dec-2019
HD Live streaming from Space Station
objects crossing your sky now

FENGYUN 1C DEB

Track FENGYUN 1C DEB now!
10-day predictions


NORAD ID: 30280
Int'l Code: 1999-025YR
Perigee: 855.1 km
Apogee: 970.6 km
Inclination: 98.9 °
Period: 103.1 minutes
Semi major axis: 7283 km
RCS: 0.043 m2 (small)
Launch date: May 10, 1999
Source: People's Republic of China (PRC)
Launch site: Taiyaun Space Center, China (TSC)

Note: This is SATELLITE DEBRIS
aabbcc
Your satellite tracking list
Your tracking list is empty




NASA's NSSDC Master Catalog

Two Line Element Set (TLE):
1 30280U 99025YR  19342.91060050 -.00000031 +00000-0 +90959-5 0  9990
2 30280 098.9189 032.1718 0079260 282.1986 252.9329 13.96568287657444
Source of the keplerian elements: AFSPC